Regional Weather Roundup
Issued by NWS Kansas City/Pleasant Hill, MO

Home | Current Version | Previous Version | Text Only | Print | Product List | Glossary On
Versions: 1 2 3 4 5 6 7 8 9 10 11 12 13 14 15 16 17 18 19 20 21 22 23 24 25 26 27 28 29 30 31 32 33 34 35 36 37 38 39 40 41 42 43 44 45 46 47 48 49 50
000
ASUS43 KEAX 012311
RWREAX

WEATHER ROUNDUP FOR EASTERN KANSAS AND NORTHWEST MISSOURI
NATIONAL WEATHER SERVICE KANSAS CITY/PLEASANT HILL MO
500 PM CST SUN FEB 01 2015

KSZ040-057-103>105-MOZ028-029-037-043-020000-
...KANSAS CITY METROPOLITAN AREA...

CITY           SKY/WX    TMP DP  RH WIND       PRES   REMARKS
K.C. INTL      LGT SNOW  20  16  84 NW23G29   30.01R VSB 3/4 WCI   3
K.C. DOWNTOWN  FLURRIES  23  17  78 NW20G33   30.03R WCI   8
LEES SUMMIT    LGT SNOW  23  18  81 NW17G24   29.99R WCI   9
OLATHE - IXD   LGT SNOW  20  15  81 NW28G36   30.04R WCI   2
OLATHE - OJC   LGT SNOW  21  15  78 N21G35    30.00R WCI   5
LAWRENCE       LGT SNOW  18  12  77 NW22G36   30.10R WCI   1

$$

MOZ001>008-011>017-020>025-030>033-038>040-044>046-053-054-020000-
...NORTHERN AND CENTRAL MISSOURI...

CITY           SKY/WX    TMP DP  RH WIND       PRES   REMARKS
ST. JOSEPH     LGT SNOW  19  15  84 N24G30    30.07R FOG     WCI   2
MOSBY          FLURRIES  25  18  74 NW22G32   30.00R WCI  10
WARRENSBURG    LGT SNOW  27  23  86 NW15G26   29.95R WCI  15
WHITEMAN AFB   LGT SNOW  28  24  86 NW18      29.91R FOG     WCI  15
CLINTON        CLOUDY    30  25  80 NW17G23   29.94R WCI  18
SEDALIA        LGT SNOW  30  26  85 NW22G35   29.90R FOG     WCI  17
WARSAW         NOT AVBL
MARSHALL       LGT SNOW  34  32  93 NW21G28   29.84  WCI  22
CHILLICOTHE      N/A     24  18  77 N14G23    29.97R WCI  12
KIRKSVILLE     LGT SNOW  22  18  85 N20G33    29.88R FOG     WCI   7

$$

MOZ041-047>049-056>058-063>065-088>090-097-020000-
...EASTERN AND SOUTHERN MISSOURI...

CITY           SKY/WX    TMP DP  RH WIND       PRES   REMARKS
ST. LOUIS INTL LGT RAIN  38  34  85 NW12      29.69R FOG     WCI  30
SPIRIT OF STL  CLOUDY    37  34  89 W16G22    29.71R WCI  28
COLUMBIA       LGT SNOW  34  33  96 NW14      29.79R FOG     WCI  25
JEFFERSON CITY CLOUDY    35  32  88 NW16G25   29.80R WCI  25
ROLLA          LGT SNOW  34  31  88 W17G25    29.76R FOG     WCI  23
LEBANON        CLOUDY    30  28  93 W23G32    29.85  WCI  17
OSAGE BEACH    CLOUDY    34  27  75 W17G24    29.84R WCI  23
SPRINGFIELD    CLOUDY    28  23  81 NW20G30   29.91R WCI  15
BRANSON        CLOUDY    32  27  80 W7G16     29.90R WCI  26
NEVADA         CLOUDY    23  18  80 NW21G31   30.02R WCI   8
JOPLIN         CLOUDY    25  18  74 NW17      30.03R WCI  12
WEST PLAINS    CLOUDY    35  31  85 W18G29    29.80R WCI  24

$$

IAZ060-094-KSZ022-034>040-054-083-096-NEZ052-066-093-020000-
...KANSAS...SOUTHEAST NEBRASKA AND IOWA...

CITY           SKY/WX    TMP DP  RH WIND       PRES   REMARKS
TOPEKA         LGT SNOW  17   9  70 NW28G33   30.14R WCI  -2
MANHATTAN      LGT SNOW  13   6  74 N10G25    30.23R WCI   0
EMPORIA        LGT SNOW  15  10  80 NW25G38   30.13R WCI  -4
CHANUTE        CLOUDY    21  12  68 NW24G33   30.09R WCI   4
WICHITA        FLURRIES  21   9  59 N29G39    30.19R WCI   3
OMAHA          BLWGSNOW  13   8  81 N26G38    30.18R VSB 1/4 WCI  -7
LINCOLN        LGT SNOW   9   3  77 N25G35    30.24R WCI -12
FALLS CITY     LGT SNOW  14   9  80 NW24G35   30.12R WCI  -5
LAMONI         LGT SNOW  18  13  80 N17G32    29.98R WCI   3
DES MOINES     LGT SNOW  18  12  77 N18G29    30.05R VSB 1   WCI   2

$$



USA.gov is the U.S. government's official web portal to all federal, state and local government web resources and services.